FW8254 Weather Reports


time (UTC)temp
C
wind
direction
speed
KPH
gust
KPH
rain 1hr
cm
rain 24hr
cm
rain mn
cm
humidity
%
barometer
mb
20260901065856 25 334 0.0 0.0 0.00 0.00 0.00 88 1013.0
20260901065351 25 334 0.0 0.0 0.00 0.00 0.00 87 1012.9
20260901064847 25 334 0.0 0.0 0.00 0.00 0.00 87 1013.0
20260901064343 25 334 0.0 0.0 0.00 0.00 0.00 86 1012.9
20260901063840 25 334 0.0 0.0 0.00 0.00 0.00 86 1013.1
20260901063336 25 334 0.0 0.0 0.00 0.00 0.00 86 1013.2
20260901062832 25 333 0.0 0.0 0.00 0.00 0.00 85 1013.0
20260901062328 25 333 0.0 0.0 0.00 0.00 0.00 85 1013.1
20260901061824 24 338 1.6 1.6 0.00 0.00 0.00 85 1013.0
20260901061319 24 332 0.0 0.0 0.00 0.00 0.00 85 1012.9
20260901060814 24 333 0.0 0.0 0.00 0.00 0.00 85 1013.2
20260901060310 24 335 0.0 0.0 0.00 0.00 0.00 86 1013.0
20260901055804 24 334 0.0 0.0 0.00 0.00 0.00 86 1013.0
20260901055301 24 334 0.0 0.0 0.00 0.00 0.00 87 1012.9
20260901054757 24 334 0.0 0.0 0.00 0.00 0.00 87 1013.0
20260901054254 24 334 0.0 0.0 0.00 0.00 0.00 87 1013.1
20260901053749 24 335 0.0 0.0 0.00 0.00 0.00 88 1013.1
20260901053249 24 331 0.0 0.0 0.00 0.00 0.00 89 1012.9
20260901052745 24 337 0.0 1.6 0.00 0.00 0.00 89 1013.2
20260901052241 24 333 0.0 0.0 0.00 0.00 0.00 89 1013.2
20260901051739 24 332 0.0 0.0 0.00 0.00 0.00 90 1013.3
20260901051234 24 331 0.0 0.0 0.00 0.00 0.00 90 1013.2
20260901050730 25 329 0.0 0.0 0.00 0.00 0.00 90 1013.4
20260901050225 25 329 0.0 0.0 0.00 0.00 0.00 90 1013.2
20260901045720 25 331 0.0 0.0 0.00 0.00 0.00 90 1013.2
20260901045215 25 332 0.0 0.0 0.00 0.00 0.00 90 1013.2
20260901044710 25 331 0.0 0.0 0.00 0.00 0.00 90 1013.1
20260901044206 25 332 0.0 0.0 0.00 0.00 0.00 90 1013.0
20260901043702 25 332 0.0 0.0 0.00 0.00 0.00 90 1013.1
20260901043157 25 334 0.0 0.0 0.00 0.00 0.00 90 1013.3
20260901042656 25 334 1.6 1.6 0.00 0.00 0.00 90 1013.3
20260901042151 25 334 0.0 0.0 0.00 0.00 0.00 90 1013.1
20260901041648 25 334 0.0 0.0 0.00 0.00 0.00 90 1013.0
20260901041147 25 332 0.0 0.0 0.00 0.00 0.00 89 1013.0
20260901040642 25 333 0.0 0.0 0.00 0.00 0.00 90 1013.0
20260901040141 25 332 0.0 0.0 0.00 0.00 0.00 89 1013.0
20260901035639 25 332 0.0 0.0 0.00 0.00 0.00 89 1013.0
20260901035138 25 332 0.0 0.0 0.00 0.00 0.00 89 1012.8
20260901034632 25 332 0.0 0.0 0.00 0.00 0.00 89 1012.8
20260901034127 25 333 0.0 0.0 0.00 0.00 0.00 89 1013.0
20260901033626 25 332 0.0 0.0 0.00 0.00 0.00 88 1012.7
20260901033121 25 326 0.0 0.0 0.00 0.00 0.00 88 1012.9
20260901032619 25 323 0.0 1.6 0.00 0.00 0.00 88 1012.7
20260901032114 25 332 0.0 0.0 0.00 0.00 0.00 88 1012.7
20260901031609 25 332 0.0 0.0 0.00 0.00 0.00 87 1012.6
20260901031106 25 333 0.0 0.0 0.00 0.00 0.00 87 1012.8
20260901030605 25 333 0.0 0.0 0.00 0.00 0.00 87 1012.5
20260901030100 25 332 0.0 0.0 0.00 0.00 0.00 87 1012.6
20260901025600 25 332 0.0 0.0 0.00 0.00 0.00 87 1012.7
20260901025054 25 332 0.0 0.0 0.00 0.00 0.00 86 1012.5
20260901024549 25 332 0.0 0.0 0.00 0.00 0.00 86 1012.8
20260901024048 26 332 0.0 0.0 0.00 0.00 0.00 86 1012.8
20260901023547 26 332 0.0 0.0 0.00 0.00 0.00 86 1012.8
20260901023043 26 332 0.0 0.0 0.00 0.00 0.00 86 1012.7
20260901022537 26 333 0.0 0.0 0.00 0.00 0.00 86 1012.7
20260901022032 26 335 0.0 0.0 0.00 0.00 0.00 85 1012.8
20260901021528 26 335 0.0 1.6 0.00 0.00 0.00 85 1012.7
20260901021024 26 335 0.0 0.0 0.00 0.00 0.00 85 1012.6
20260901020519 26 337 1.6 1.6 0.00 0.00 0.00 84 1012.7
20260901020014 26 334 0.0 0.0 0.00 0.00 0.00 84 1012.6
20260901015509 26 334 0.0 1.6 0.00 0.00 0.00 83 1012.6
20260901015009 26 334 0.0 0.0 0.00 0.00 0.00 83 1012.6
20260901014505 26 334 0.0 1.6 0.00 0.00 0.00 83 1012.6
20260901014000 26 334 0.0 0.0 0.00 0.00 0.00 83 1012.5
20260901013456 26 335 0.0 0.0 0.00 0.00 0.00 83 1012.4
20260901012951 26 333 0.0 1.6 0.00 0.00 0.00 83 1012.4
20260901012451 27 333 0.0 0.0 0.00 0.00 0.00 83 1012.5
20260901011946 27 332 0.0 0.0 0.00 0.00 0.00 83 1012.4
20260901011442 27 332 0.0 0.0 0.00 0.00 0.00 83 1012.0
20260901010940 27 332 0.0 0.0 0.00 0.00 0.00 83 1012.0
20260901010435 27 330 0.0 0.0 0.00 0.00 0.00 83 1012.1
20260901005935 27 331 0.0 0.0 0.00 0.00 0.00 82 1012.1
20260901005430 27 329 0.0 0.0 0.00 0.00 0.00 81 1011.9
20260901004925 28 329 0.0 0.0 0.00 0.00 0.00 81 1011.9
20260901004424 28 329 0.0 0.0 0.00 0.00 0.00 80 1011.7
20260901003919 28 329 0.0 0.0 0.00 0.00 0.00 79 1011.8
20260901003414 28 330 0.0 0.0 0.00 0.00 0.00 79 1011.6
20260901002913 28 329 0.0 0.0 0.00 0.00 0.00 78 1011.6
20260901002412 28 327 0.0 0.0 0.00 0.00 0.00 77 1011.8
20260901001907 28 327 0.0 0.0 0.00 0.00 0.00 76 1011.7
20260901001403 28 327 0.0 0.0 0.00 0.00 0.00 76 1011.6
20260901000858 28 326 0.0 0.0 0.00 0.00 0.00 75 1011.6
20260901000353 29 324 0.0 0.0 0.00 0.00 0.00 75 1011.6
20260831235851 29 328 0.0 0.0 0.00 0.00 0.00 75 1011.8
20260831235348 29 34 0.0 0.0 0.00 0.00 0.00 74 1011.6
20260831234842 29 35 0.0 0.0 0.00 0.00 0.00 73 1011.6
20260831234342 30 36 0.0 0.0 0.00 0.00 0.00 72 1011.6
20260831233838 30 35 0.0 0.0 0.00 0.00 0.00 70 1011.7
20260831233333 30 35 0.0 0.0 0.00 0.00 0.00 67 1011.6
20260831232828 30 35 0.0 0.0 0.00 0.00 0.00 65 1011.6
20260831232325 30 35 0.0 0.0 0.00 0.00 0.00 64 1011.8
20260831231820 31 36 0.0 0.0 0.00 0.00 0.00 63 1011.6
20260831231317 31 36 0.0 0.0 0.00 0.00 0.00 62 1011.8
20260831230811 31 36 0.0 0.0 0.00 0.00 0.00 61 1011.7
20260831230306 31 36 0.0 1.6 0.00 0.00 0.00 61 1011.8
20260831225806 31 36 0.0 1.6 0.00 0.00 0.00 59 1011.7
20260831225301 31 36 0.0 1.6 0.00 0.00 0.00 58 1011.6
20260831224756 31 36 0.0 0.0 0.00 0.00 0.00 59 1011.7
20260831224251 31 36 0.0 0.0 0.00 0.00 0.00 58 1011.6
20260831223746 31 36 0.0 0.0 0.00 0.00 0.00 58 1011.8
20260831223242 31 36 0.0 1.6 0.00 0.00 0.00 59 1011.8
20260831222738 32 36 0.0 1.6 0.00 0.00 0.00 59 1011.8
20260831222234 32 35 0.0 1.6 0.00 0.00 0.00 60 1011.9
20260831221729 32 11 0.0 1.6 0.00 0.00 0.00 58 1011.8
20260831221225 32 11 0.0 1.6 0.00 0.00 0.00 58 1011.7
20260831220719 32 8 1.6 3.2 0.00 0.00 0.00 57 1011.7
20260831220215 32 36 0.0 1.6 0.00 0.00 0.00 58 1012.3
20260831215709 32 4 1.6 1.6 0.00 0.00 0.00 58 1011.7
20260831215206 32 19 1.6 1.6 0.00 0.00 0.00 59 1011.8
20260831214702 32 341 3.2 4.8 0.00 0.00 0.00 59 1011.8
20260831214159 32 0 3.2 4.8 0.00 0.00 0.00 58 1011.7
20260831213654 32 21 0.0 3.2 0.00 0.00 0.00 58 1011.7
20260831213150 32 16 1.6 1.6 0.00 0.00 0.00 61 1011.7
20260831212646 32 332 4.8 4.8 0.00 0.00 0.00 58 1011.8
20260831212143 32 349 3.2 3.2 0.00 0.00 0.00 59 1011.9
20260831211641 32 4 3.2 4.8 0.00 0.00 0.00 60 1011.9
20260831211141 32 336 3.2 4.8 0.00 0.00 0.00 60 1012.2
20260831210636 32 6 3.2 3.2 0.00 0.00 0.00 58 1012.0
20260831210132 32 19 1.6 3.2 0.00 0.00 0.00 58 1012.0
20260831205631 32 15 1.6 3.2 0.00 0.00 0.00 59 1011.8
20260831205128 32 16 1.6 3.2 0.00 0.00 0.00 60 1012.0
20260831204627 31 353 3.2 3.2 0.00 0.00 0.00 60 1012.3
20260831204126 31 15 1.6 3.2 0.00 0.00 0.00 59 1012.3
20260831203621 32 12 1.6 3.2 0.00 0.00 0.00 59 1012.4
20260831203120 32 11 1.6 3.2 0.00 0.00 0.00 58 1012.4
20260831202619 32 352 3.2 3.2 0.00 0.00 0.00 59 1012.3
20260831202114 32 357 3.2 4.8 0.00 0.00 0.00 59 1012.5
20260831201613 32 16 1.6 1.6 0.00 0.00 0.00 59 1012.6
20260831201108 32 12 1.6 3.2 0.00 0.00 0.00 60 1012.6
20260831200604 32 339 4.8 4.8 0.00 0.00 0.00 60 1012.6
20260831200103 32 348 3.2 4.8 0.00 0.00 0.00 58 1012.6
20260831195559 33 5 1.6 3.2 0.00 0.00 0.00 57 1012.5
20260831195054 33 18 1.6 1.6 0.00 0.00 0.00 55 1012.5
20260831194549 33 35 1.6 3.2 0.00 0.00 0.00 55 1012.6
20260831194044 33 43 0.0 1.6 0.00 0.00 0.00 55 1012.8
20260831193539 33 43 1.6 3.2 0.00 0.00 0.00 55 1012.6
20260831193039 33 10 3.2 4.8 0.00 0.00 0.00 53 1012.6
20260831192534 33 35 0.0 1.6 0.00 0.00 0.00 56 1012.7
20260831192030 33 37 3.2 3.2 0.00 0.00 0.00 55 1012.9
20260831191525 33 35 1.6 1.6 0.00 0.00 0.00 56 1012.9
20260831191021 33 34 0.0 3.2 0.00 0.00 0.00 57 1012.9
20260831190517 33 34 0.0 1.6 0.00 0.00 0.00 57 1012.9
20260831190015 33 29 0.0 1.6 0.00 0.00 0.00 58 1013.3
20260831185511 32 33 0.0 1.6 0.00 0.00 0.00 58 1013.3
20260831185006 32 33 0.0 1.6 0.00 0.00 0.00 60 1013.3
20260831184455 31 24 0.0 1.6 0.00 0.00 0.00 61 1013.5
20260831183950 31 37 0.0 1.6 0.00 0.00 0.00 61 1013.6
20260831183449 31 57 1.6 3.2 0.00 0.00 0.00 59 1013.4
20260831182949 31 47 1.6 3.2 0.00 0.00 0.00 60 1013.7
20260831182444 31 45 3.2 4.8 0.00 0.00 0.00 58 1013.7
20260831181940 31 33 0.0 1.6 0.00 0.00 0.00 59 1013.9
20260831181435 31 49 1.6 3.2 0.00 0.00 0.00 60 1013.8
20260831180929 31 38 1.6 3.2 0.00 0.00 0.00 62 1014.0
20260831180424 30 27 0.0 1.6 0.00 0.00 0.00 63 1013.8
20260831175923 30 14 1.6 3.2 0.00 0.00 0.00 63 1013.8
20260831175420 30 13 1.6 3.2 0.00 0.00 0.00 63 1014.0
20260831174915 30 9 3.2 3.2 0.00 0.00 0.00 63 1014.0
20260831174410 30 17 1.6 3.2 0.00 0.00 0.00 63 1014.2
20260831173909 30 3 1.6 3.2 0.00 0.00 0.00 64 1014.1
20260831173403 30 344 3.2 4.8 0.00 0.00 0.00 64 1014.2
20260831172859 30 16 1.6 3.2 0.00 0.00 0.00 65 1014.2
20260831172355 30 7 1.6 3.2 0.00 0.00 0.00 66 1014.3
20260831171854 30 355 3.2 4.8 0.00 0.00 0.00 68 1014.4
20260831171351 29 331 4.8 4.8 0.00 0.00 0.00 67 1014.1
20260831170848 30 15 1.6 3.2 0.00 0.00 0.00 67 1014.3
20260831170343 29 15 1.6 3.2 0.00 0.00 0.00 69 1014.2
20260831165839 30 359 3.2 3.2 0.00 0.00 0.00 68 1014.4
20260831165335 30 19 1.6 1.6 0.00 0.00 0.00 71 1014.4
20260831164832 30 18 0.0 1.6 0.00 0.00 0.00 67 1014.5
20260831164328 30 22 0.0 1.6 0.00 0.00 0.00 67 1014.5
20260831163823 30 24 0.0 1.6 0.00 0.00 0.00 66 1014.6
20260831163319 30 21 1.6 1.6 0.00 0.00 0.00 66 1014.5
20260831162817 30 51 1.6 3.2 0.00 0.00 0.00 66 1014.6
20260831162312 30 35 1.6 1.6 0.00 0.00 0.00 67 1014.8
20260831161811 30 29 0.0 1.6 0.00 0.00 0.00 70 1014.7
20260831161307 28 35 0.0 1.6 0.00 0.00 0.00 71 1014.6
20260831160802 28 35 0.0 0.0 0.00 0.00 0.00 73 1014.6
20260831160257 28 34 0.0 0.0 0.00 0.00 0.00 76 1014.7
20260831155756 28 34 0.0 1.6 0.00 0.00 0.00 75 1014.8
20260831155252 28 31 0.0 0.0 0.00 0.00 0.00 75 1015.0
20260831154748 28 13 1.6 1.6 0.00 0.00 0.00 75 1015.0
20260831154244 28 32 0.0 0.0 0.00 0.00 0.00 77 1014.9
20260831153742 28 33 0.0 1.6 0.00 0.00 0.00 76 1015.0
20260831153238 28 31 0.0 0.0 0.00 0.00 0.00 76 1014.8
20260831152734 27 14 1.6 3.2 0.00 0.00 0.00 76 1015.0
20260831152230 28 15 1.6 3.2 0.00 0.00 0.00 77 1014.7
20260831151730 28 38 0.0 1.6 0.00 0.00 0.00 77 1014.9
20260831151229 28 29 0.0 1.6 0.00 0.00 0.00 76 1014.8
20260831150725 27 43 0.0 1.6 0.00 0.00 0.00 78 1014.8
20260831150220 27 25 1.6 3.2 0.00 0.00 0.00 78 1014.8
20260831145719 27 12 1.6 4.8 0.00 0.00 0.00 80 1015.0
20260831145216 27 18 1.6 3.2 0.00 0.00 0.00 81 1015.0
20260831144711 26 18 0.0 1.6 0.00 0.00 0.00 81 1015.1
20260831144207 26 12 1.6 3.2 0.00 0.00 0.00 84 1015.0
20260831143706 26 16 0.0 1.6 0.00 0.00 0.00 85 1014.9
20260831143202 26 23 0.0 3.2 0.00 0.00 0.00 85 1014.9
20260831142658 26 23 1.6 4.8 0.00 0.00 0.00 85 1015.0
20260831142153 26 18 1.6 4.8 0.00 0.00 0.00 87 1014.9
20260831141652 25 21 1.6 3.2 0.00 0.00 0.00 88 1015.0
20260831141147 25 16 1.6 1.6 0.00 0.00 0.00 88 1015.0
20260831140646 25 22 0.0 1.6 0.00 0.00 0.00 90 1014.8
20260831140141 25 10 1.6 1.6 0.00 0.00 0.00 91 1015.1
20260831135639 25 11 0.0 0.0 0.00 0.00 0.00 92 1015.0
20260831135135 25 24 0.0 0.0 0.00 0.00 0.00 93 1014.8
20260831134631 24 22 0.0 0.0 0.00 0.00 0.00 94 1014.8
20260831134126 24 23 0.0 0.0 0.00 0.00 0.00 95 1014.8
20260831133625 24 20 0.0 0.0 0.00 0.00 0.00 96 1014.7
20260831133120 24 17 0.0 1.6 0.00 0.00 0.00 96 1014.9
20260831132616 23 22 0.0 0.0 0.00 0.00 0.00 96 1014.8
20260831132115 23 24 0.0 1.6 0.00 0.00 0.00 96 1014.8
20260831131610 23 24 0.0 1.6 0.00 0.00 0.00 97 1014.9
20260831131107 23 26 0.0 0.0 0.00 0.00 0.00 97 1014.8
20260831130601 23 30 0.0 0.0 0.00 0.00 0.00 97 1014.8
20260831130057 23 31 0.0 0.0 0.00 0.00 0.00 97 1014.7
20260831125555 23 25 0.0 0.0 0.00 0.00 0.00 97 1014.8
20260831125051 23 30 0.0 0.0 0.00 0.00 0.00 97 1014.8
20260831124547 23 26 0.0 0.0 0.00 0.00 0.00 97 1014.8
20260831124043 23 343 0.0 0.0 0.00 0.00 0.00 97 1014.7
20260831123542 22 350 0.0 0.0 0.00 0.00 0.00 97 1014.7
20260831123036 22 350 0.0 0.0 0.00 0.00 0.00 97 1014.8
20260831122531 22 350 0.0 0.0 0.00 0.00 0.00 97 1014.7
20260831122026 22 350 0.0 0.0 0.00 0.00 0.00 97 1014.5
20260831121527 22 350 0.0 0.0 0.00 0.00 0.00 97 1014.8
20260831121023 22 350 0.0 0.0 0.00 0.00 0.00 97 1014.6
20260831120522 22 350 0.0 0.0 0.00 0.00 0.00 97 1014.5
20260831120018 22 350 0.0 0.0 0.00 0.00 0.00 97 1014.4
20260831115514 22 350 0.0 0.0 0.00 0.00 0.00 97 1014.4
20260831115009 22 351 0.0 0.0 0.00 0.00 0.00 97 1014.3
20260831114507 22 347 0.0 0.0 0.00 0.00 0.00 97 1014.4
20260831114003 22 351 0.0 0.0 0.00 0.00 0.00 97 1014.4
20260831113501 22 350 0.0 0.0 0.00 0.00 0.00 97 1014.3
20260831112957 22 350 0.0 0.0 0.00 0.00 0.00 97 1014.4
20260831112452 22 351 0.0 0.0 0.00 0.00 0.00 97 1014.1
20260831111947 22 348 0.0 0.0 0.00 0.00 0.00 96 1014.2
20260831111443 22 348 0.0 0.0 0.00 0.00 0.00 96 1014.3
20260831110938 22 351 0.0 0.0 0.00 0.00 0.00 96 1014.1
20260831110433 22 351 0.0 0.0 0.00 0.00 0.00 96 1014.3
20260831105932 22 351 0.0 0.0 0.00 0.00 0.00 96 1014.3
20260831105428 22 351 0.0 0.0 0.00 0.00 0.00 96 1014.1
20260831104923 22 351 0.0 0.0 0.00 0.00 0.00 96 1014.2
20260831104419 22 353 0.0 0.0 0.00 0.00 0.00 96 1014.0
20260831103914 22 347 0.0 0.0 0.00 0.00 0.00 96 1014.1
20260831103414 22 350 0.0 0.0 0.00 0.00 0.00 96 1014.0
20260831102909 22 351 0.0 0.0 0.00 0.00 0.00 96 1013.9
20260831102404 22 351 0.0 0.0 0.00 0.00 0.00 96 1014.1
20260831101859 22 350 0.0 0.0 0.00 0.00 0.00 96 1014.1
20260831101354 22 350 0.0 0.0 0.00 0.00 0.00 96 1014.1
20260831100851 22 350 0.0 0.0 0.00 0.00 0.00 96 1014.2
20260831100347 22 351 0.0 0.0 0.00 0.00 0.00 96 1014.1
20260831095846 22 351 0.0 0.0 0.00 0.00 0.00 96 1014.0
20260831095345 22 351 0.0 0.0 0.00 0.00 0.00 96 1014.1
20260831094841 22 350 0.0 0.0 0.00 0.00 0.00 96 1013.8
20260831094336 22 350 0.0 0.0 0.00 0.00 0.00 96 1014.0
20260831093832 22 350 0.0 0.0 0.00 0.00 0.00 96 1014.1
20260831093327 22 351 0.0 0.0 0.00 0.00 0.00 96 1013.8
20260831092824 22 350 0.0 0.0 0.00 0.00 0.00 96 1014.0
20260831092319 22 350 0.0 0.0 0.00 0.00 0.00 95 1014.2
20260831091814 22 351 0.0 0.0 0.00 0.00 0.00 95 1014.0
20260831091310 22 351 0.0 0.0 0.00 0.00 0.00 95 1014.0
20260831090805 22 351 0.0 0.0 0.00 0.00 0.00 95 1013.6
20260831090301 22 351 0.0 0.0 0.00 0.00 0.00 95 1014.1
20260831085757 22 351 0.0 0.0 0.00 0.00 0.00 95 1013.8
20260831085251 22 352 0.0 0.0 0.00 0.00 0.00 95 1014.0
20260831084746 23 353 0.0 0.0 0.00 0.00 0.00 95 1013.8
20260831084243 23 352 0.0 0.0 0.00 0.00 0.00 95 1013.9
20260831083738 23 352 0.0 0.0 0.00 0.00 0.00 95 1013.8
20260831083234 23 353 0.0 0.0 0.00 0.00 0.00 95 1013.7
20260831082732 23 352 0.0 0.0 0.00 0.00 0.00 94 1013.8
20260831082228 23 353 0.0 0.0 0.00 0.00 0.00 94 1013.5
20260831081723 23 351 0.0 0.0 0.00 0.00 0.00 94 1013.6
20260831081219 23 351 0.0 0.0 0.00 0.00 0.00 94 1013.5
20260831080714 22 351 0.0 0.0 0.00 0.00 0.00 94 1013.5
20260831080208 22 351 0.0 0.0 0.00 0.00 0.00 94 1013.5
20260831075704 22 351 0.0 0.0 0.00 0.00 0.00 94 1013.6
20260831075200 22 352 0.0 0.0 0.00 0.00 0.00 94 1013.5
20260831074659 22 352 0.0 0.0 0.00 0.00 0.00 93 1013.4
20260831074153 23 353 0.0 0.0 0.00 0.00 0.00 93 1013.1
20260831073648 23 353 0.0 0.0 0.00 0.00 0.00 93 1013.4
20260831073148 23 353 0.0 0.0 0.00 0.00 0.00 93 1013.4
20260831072643 23 353 0.0 0.0 0.00 0.00 0.00 93 1013.2
20260831072140 23 355 0.0 0.0 0.00 0.00 0.00 93 1013.5
20260831071638 23 352 0.0 0.0 0.00 0.00 0.00 93 1013.4
20260831071133 23 352 0.0 0.0 0.00 0.00 0.00 93 1013.5
20260831070633 23 352 0.0 0.0 0.00 0.00 0.00 93 1013.4